Location: Unspecified
(0.0000°N, 0.0000°E)
Time: 07:14:11
(UTC-05:00)

CZ-3 Stage 3 - Visible Passes

Search period start: 20 July 2019 00:00
Search period end: 30 July 2019 00:00
Orbit: 485 x 34706 km, 30.5° (Epoch: 19 July)

Date Brightness Start Highest point End Pass type
(mag) Time Alt. Az. Time Alt. Az. Time Alt. Az.
20 Jul 6.7 15:42:53 10° N 15:54:55 23° NE 01:02:43 10° SE visible
21 Jul 5.1 23:02:44 10° WNW 00:24:38 36° W 08:27:44 10° ENE visible
22 Jul 7.4 19:09:27 10° NW 20:06:14 82° ENE 04:47:39 10° ESE visible
23 Jul 6.6 15:32:49 10° N 15:44:50 24° NE 00:52:34 10° SE visible
24 Jul 5.1 22:52:38 10° WNW 00:14:16 35° W 08:17:41 10° ENE visible
25 Jul 7.4 18:59:18 10° NW 19:52:51 83° ENE 04:37:43 10° ESE visible
26 Jul 6.6 15:22:44 10° N 15:34:43 24° NE 00:42:25 10° SE visible
27 Jul 5.2 22:42:32 10° WNW 00:03:57 35° W 08:07:38 10° ENE visible
28 Jul 7.4 18:49:09 10° NW 19:40:02 83° ENE 04:27:47 10° ESE visible
